COSMOS 1275 DEB, 39945

Orbit data source: Space-Track

COSMOS 1275 DEB, 39945 is space debris in LEO originally from a launch on Thu, 04 Jun 1981 UTC launched from the Plesetsk Missile And Space Complex (PKMTR). Debris objects in space refer to the collection of defunct objects orbiting the Earth. Examples of debris include non-operational satellites, rocket bodies, and fragments generated from explosions, collisions, or faulty payload assembly.

Loading next visibility...
Identifier
39945, 1981-053NF
Orbit
LEO
Country
Flag of CISCIS
Related business
Manufacturer
Unknown
Mission
Spacecraft
Bus & Motor
Unknown
Mass
Unknown
Launch date (UTC)
1981-06-04 (44 years ago)
Launch vehicle
Unknown
Launch site
Plesetsk Missile And Space Complex (PKMTR)
Object type
Payload
Rocket body
Debris
Shape & HBR
Unknown shape, 0.1 m
Radar Cross Section
Small (<0.1 m²)

Expand to show TLE details & history
Last TLE update: 1 day ago

TLE from 1 day ago
0 COSMOS 1275 DEB
1 39945U 81053NF  25295.51644137  .00000478  00000-0  44169-3 0  9997
2 39945  82.9567  26.2204 0038008 305.9163  73.4116 13.80350764572970
Epoch: 2025-10-22T12:23Z
TLE epoch observation values (Epoch: 2025-10-22T12:23:40.534Z)
Latitude
19.59134°
Longitude
171.61976°
Altitude
957.24 km
Speed
7.379 km/s
True Right ascension
01h 54m 54s
True Declination
19° 29' 09"
Sunlit
Object was in full shadow at epoch
Visualization orbit readout
Latitude
Unknown
Longitude
Unknown
Altitude
Unknown
Speed
Unknown
Apparent Right ascension
Unknown
Apparent Declination
Unknown
Sunlit
N/A
Visualization observer readout
Local Sidereal Time
09:07:29
Azimuth
Unknown
Elevation
Unknown
Doppler factor
Unknown
Orbital elements
Apogee altitude
987.674 km
Perigee altitude
931.894 km
Semi-major axis
7,337.921 km
Eccentricity
0.0038
Inclination
82.9567°
RAAN
26.2204°
Arg. of periapsis
305.9163°
True anomaly
73.82958°
Mean anomaly
73.4116°
Eccentric anomaly
73.62053°
Mean motion
3.4529 °/min
Orbital period
104.26 mins
BSTAR
0.00044169
Loading maneuver chart data...
Computing Atmospheric mass density...

Documentation

Showing up to 5 results
|